Погода в Яньци

Китай     42°03′53″N   86°34′14″E
темп.,
°C
ветер,
м/с
пор.,
м/с
влажн.,
%
обл.,
%
осадки,
мм/ч
давл.,
гПа
погр.,
м
18 апреля, вс
вс1823:00+18з2322100 0.0 100935
02:00+16ссз4527100 0.0 101164
05:00+15с4631100 0.0 101199
08:00+13сз5932100 0.0 1013143
11:00+18ссз4420100 0.0 1012610
14:00+21в4315100 0.0 10111675
17:00+23в4314100 0.0 10091954
20:00+22вюв2214100 0.0 1009493
19 апреля, пн
пн1923:00+18вюв3418100 0.0 101254
02:00+15ссв3331100 0.0 101362
05:00+14с3333100 0.0 101224
08:00+13св2234100 0.0 101413
11:00+17в2227100 0.0 1014455
14:00+20ю1319100 0.0 10111815
17:00+22юз7717100 0.0 10082622
20:00+22юз6717100 0.0 10082243
20 апреля, вт
вт2023:00+19зюз3422100 0.0 101065
02:00+16сз5834100 0.0 1010240
05:00+15сз5935100 0.0 1010194
08:00+15сз5924100 0.0 1010273
11:00+17зюз5629100 0.1 10111000
14:00+21юв45225 0.1 10081989
17:00+23ююв46173 0.0 10053044
20:00+23юз66190 0.0 10032075
21 апреля, ср
ср2123:00+19зюз34240 0.0 100456
02:00+17сз33285 0.0 100423
05:00+16с33311 0.0 100237
08:00+14ссз11355 0.0 100211
11:00+20ссз2224100 0.0 1002441
14:00+24юз2416100 0.0 9992202
17:00+25юз981433 0.0 9962617
20:00+24юз101015100 0.0 9951374
22 апреля, чт
чт2223:00+21юз5919100 0.0 998205
02:00+19зюз33227 0.0 99831
05:00+17зсз22313 0.0 99811
08:00+14сз8122841 0.0 1000219
11:00+19ссз7719100 0.0 1000467
14:00+23в6519100 0.0 9981246
17:00+24с431899 0.0 9971478
20:00+17сз101127100 0.2 1002544